Machine Overzicht

Generator events en service beheer
Records
354,142
Machines
263
Starts
29,734
Warnings
20,390
25 resultaten · pagina 13976 van 14166
Dubbelklik service uren om te bewerken
ID Machine Gebeurtenis Tijd Uren Service Status USB ID
4766 200-044 AS Engine Stopped 17-08-2024 22:20:12 2,835 500 OVER BEURT URGENT! 6F28F1A45D
4767 OCH001 Generator Under Volts Warning 17-08-2024 22:19:54 665 500 OVER BEURT URGENT! 25A29724BE4
4765 100-074XASB-S5 Fuel Remaining 101% 17-08-2024 21:09:34 452 500 Service nodig! 6F2AC40676
4763 300-016XASB-S5 ECU Lamp 17-08-2024 21:08:07 747 500 OVER BEURT URGENT! 6E2CEFDBE7
4764 300-016XASB-S5 Engine Stopped 17-08-2024 21:07:56 747 500 OVER BEURT URGENT! 6E2CEFDBE7
4762 OCH001 Engine Start 17-08-2024 20:49:54 663 500 OVER BEURT URGENT! 25A29724BE4
4761 300-016XASB-S5 Engine Start 17-08-2024 20:39:14 746 500 OVER BEURT URGENT! 6E2CEFDBE7
4760 100-073XASB-S5 Fuel Remaining 101% 17-08-2024 19:26:58 336 500 In orde 6F2AC16DF6
4758 300-016XASB-S5 ECU Lamp 17-08-2024 19:24:38 746 500 OVER BEURT URGENT! 6E2CEFDBE7
4759 300-016XASB-S5 Engine Stopped 17-08-2024 19:24:26 746 500 OVER BEURT URGENT! 6E2CEFDBE7
4757 100-072XASB-S5 Fuel Remaining 96% 17-08-2024 19:10:54 511 500 OVER BEURT URGENT! 6F2AC3F7D8
4755 100-058XAB-S5 ECU Lamp 17-08-2024 18:36:26 583 500 OVER BEURT URGENT! 25A2A752A7F
4756 100-058XAB-S5 ECU Amber Warning 17-08-2024 18:36:16 583 500 OVER BEURT URGENT! 25A2A752A7F
4754 100-016 XASI High Coolant Temp Warning 17-08-2024 18:11:06 9,366 500 OVER BEURT URGENT! 691FCBDB78
4751 60-049XA-S5 Generator Over Current Warning 17-08-2024 18:02:49 899 500 OVER BEURT URGENT! 2592AEE07E5
4752 60-049XA-S5 Generator Over Current Warning 17-08-2024 18:02:32 899 500 OVER BEURT URGENT! 2592AEE07E5
4753 60-049XA-S5 Generator Over Current Warning 17-08-2024 18:01:59 899 500 OVER BEURT URGENT! 2592AEE07E5
4750 60-049XA-S5 Engine Start 17-08-2024 17:56:13 898 500 OVER BEURT URGENT! 2592AEE07E5
4749 300-007XASB-S5 DPTC Filter Warning 17-08-2024 17:53:20 1,213 500 OVER BEURT URGENT! 6B2AC42E75
4748 60-046A Engine Stopped 17-08-2024 17:46:10 1,035 500 OVER BEURT URGENT! 6B2A933911
4746 60-049XA-S5 kW Overload Alarm Shutdown 17-08-2024 17:40:46 898 500 OVER BEURT URGENT! 2592AEE07E5
4747 60-049XA-S5 Generator Over Current Warning 17-08-2024 17:40:37 898 500 OVER BEURT URGENT! 2592AEE07E5
4745 40-041XAI-S5 Generator Over Current Warning 17-08-2024 17:11:54 214 500 In orde 2592A843A98
4744 40-041XAI-S5 Generator Over Current Warning 17-08-2024 17:10:49 214 500 In orde 2592A843A98
4742 40-041XAI-S5 Engine Start 17-08-2024 17:08:03 214 500 In orde 2592A843A98
349,376–349,400 van 354,142